Atqasuk Edward Burnell Sr Mem, AK

4:50 PM AKDT on August 17, 2019 (GMT -0800)
Atqasuk Edward Burnell Sr Mem

Weather History for PATQ - May, 2019

Change the Weather History Date:

Sunday, May 19, 2019

  Actual Average (WUND) Record (WUND)
Temperature  
Mean Temperature 30 °F -  
Max Temperature 32 °F - - (-1)
Min Temperature 28 °F - - (-1)
Degree Days  
Heating Degree Days 35    
Moisture  
Dew Point 28 °F    
Average Humidity 94    
Maximum Humidity 100    
Minimum Humidity 85    
Precipitation  
Precipitation 0.00 in - - ()
Sea Level Pressure  
Sea Level Pressure 29.98 in    
Wind  
Wind Speed 16 mph (East)    
Max Wind Speed 20 mph    
Max Gust Speed -    
Visibility 4 miles    
Events Fog , Snow    
Averages and records for this station are not official NWS values.
T = Trace of Precipitation, MM = Missing Value Source: NWS Daily Summary

Daily Weather History Graph

Daily Weather History Graph

Search for Another Location

Airport or City:

Astronomy

May. 19, 2019 Rise Set
Actual Time 2:58 AM AKDT 1:53 AM AKDT
Civil Twilight Sun does not set Sun does not set
Nautical Twilight Sun does not set Sun does not set
Astronomical Twilight Sun does not set Sun does not set
Moon 1:12 AM AKDT (5/19) 4:32 AM AKDT (5/19)
Length of Visible Light 24h 00m
Length of Day
22h 55m
Full, 99% of the Moon is Illuminated
May 19
Full
May 26
Last Quarter
Jun 3
New
Jun 9
First Quarter
Jun 17
Full

Hourly Weather History & Observations

Time (AKDT) Temp. Windchill Dew Point Humidity Pressure Visibility Wind Dir Wind Speed Gust Speed Precip Events Conditions
12:56 AM 30.0 °F 18.7 °F 28.9 °F 96% 29.93 in 0.2 mi East 16.1 mph - 0.00 in Fog Light Freezing Fog
1:09 AM 30.2 °F 18.9 °F 28.4 °F 93% 29.90 in 0.5 mi East 16.1 mph - 0.00 in Fog Light Freezing Fog
1:22 AM 30.2 °F 19.8 °F 28.4 °F 93% 29.91 in 0.2 mi East 13.8 mph - 0.00 in Fog Light Freezing Fog
1:30 AM 28.4 °F 16.6 °F 28.4 °F 100% 29.91 in 0.8 mi East 16.1 mph - 0.00 in   Overcast
1:38 AM 28.4 °F 17.5 °F 28.4 °F 100% 29.91 in 0.2 mi East 13.8 mph - 0.00 in Fog , Snow Light Snow
1:56 AM 28.9 °F 16.5 °F 28.9 °F 100% 29.94 in 0.2 mi East 18.4 mph - 0.00 in Fog Light Freezing Fog
2:56 AM 28.9 °F 17.3 °F 28.0 °F 96% 29.95 in 0.2 mi East 16.1 mph - 0.00 in Fog Light Freezing Fog
3:18 AM 28.4 °F 16.6 °F 28.4 °F 100% 29.92 in 0.5 mi East 16.1 mph - 0.00 in Fog , Snow Light Snow
3:30 AM 28.4 °F 16.2 °F 28.4 °F 100% 29.93 in 0.2 mi East 17.3 mph - 0.00 in Fog , Snow Light Snow
3:56 AM 28.9 °F 16.5 °F 28.0 °F 96% 29.95 in 0.2 mi East 18.4 mph - 0.00 in Fog , Snow Light Snow
4:56 AM 28.9 °F 17.3 °F 28.0 °F 96% 29.97 in 0.2 mi ESE 16.1 mph - 0.00 in Fog , Snow Light Snow
5:56 AM 28.9 °F 16.5 °F 28.0 °F 96% 29.98 in 0.2 mi East 18.4 mph - 0.00 in Fog , Snow Light Snow
6:56 AM 28.9 °F 16.9 °F 28.0 °F 96% 29.98 in 0.2 mi East 17.3 mph - 0.00 in Fog , Snow Light Snow
7:56 AM 28.9 °F 16.1 °F 28.9 °F 100% 29.99 in 0.2 mi East 19.6 mph - 0.00 in Fog , Snow Light Snow
8:56 AM 28.9 °F 17.3 °F 28.9 °F 100% 30.00 in 0.2 mi East 16.1 mph - 0.00 in Fog , Snow Light Snow
9:56 AM 30.0 °F 17.9 °F 30.0 °F 100% 30.00 in 0.2 mi East 18.4 mph - 0.00 in Fog , Snow Light Snow
10:04 AM 30.2 °F 18.5 °F 28.4 °F 93% 29.98 in 0.8 mi East 17.3 mph - 0.00 in Snow Light Snow
10:20 AM 30.2 °F 18.5 °F 28.4 °F 93% 29.98 in 0.2 mi East 17.3 mph - 0.00 in Fog , Snow Light Snow
10:44 AM 30.2 °F 19.3 °F 28.4 °F 93% 29.98 in 0.8 mi East 15.0 mph - 0.00 in   Overcast
10:46 AM 30.2 °F 19.3 °F 28.4 °F 93% 29.98 in 1.2 mi East 15.0 mph - 0.00 in   Overcast
10:49 AM 30.2 °F 18.5 °F 28.4 °F 93% 29.98 in 5.0 mi East 17.3 mph - 0.00 in   Overcast
10:54 AM 30.2 °F 18.9 °F 28.4 °F 93% 29.98 in 1.8 mi East 16.1 mph - 0.00 in   Overcast
10:56 AM 30.0 °F 18.3 °F 28.9 °F 96% 30.00 in 1.5 mi East 17.3 mph - 0.00 in   Overcast
11:03 AM 30.2 °F 18.1 °F 28.4 °F 93% 29.98 in 4.0 mi East 18.4 mph - N/A   Overcast
11:30 AM 30.2 °F 19.3 °F 30.2 °F 100% 29.98 in 10.0 mi East 15.0 mph - N/A   Overcast
11:56 AM 30.9 °F 19.4 °F 28.9 °F 92% 30.00 in 10.0 mi East 17.3 mph - N/A   Overcast
12:56 PM 30.9 °F 19.8 °F 28.9 °F 92% 30.00 in 10.0 mi East 16.1 mph - N/A   Mostly Cloudy
1:13 PM 30.2 °F 18.9 °F 28.4 °F 93% 29.98 in 10.0 mi East 16.1 mph - N/A   Partly Cloudy
1:56 PM 32.0 °F 20.8 °F 28.9 °F 88% 30.01 in 10.0 mi East 17.3 mph - N/A   Clear
2:56 PM 32.0 °F 21.2 °F 28.9 °F 88% 30.01 in 10.0 mi East 16.1 mph - N/A   Clear
3:09 PM 32.0 °F 20.8 °F 28.4 °F 87% 29.99 in 9.0 mi East 17.3 mph - N/A   Scattered Clouds
3:56 PM 32.0 °F 21.2 °F 28.0 °F 85% 30.01 in 10.0 mi East 16.1 mph - 0.00 in   Partly Cloudy
4:56 PM 32.0 °F 21.6 °F 28.0 °F 85% 30.01 in 10.0 mi ENE 15.0 mph - 0.00 in   Partly Cloudy
5:44 PM 32.0 °F 20.8 °F 28.4 °F 87% 29.98 in 5.0 mi ENE 17.3 mph - 0.00 in   Scattered Clouds
5:56 PM 32.0 °F 22.1 °F 28.0 °F 85% 30.01 in 10.0 mi ENE 13.8 mph - 0.00 in   Partly Cloudy
6:56 PM 30.9 °F 20.7 °F 27.0 °F 85% 30.02 in 9.0 mi ENE 13.8 mph - 0.00 in Snow Light Snow
7:56 PM 30.9 °F 20.2 °F 27.0 °F 85% 30.01 in 5.0 mi ENE 15.0 mph - 0.00 in Snow Light Snow
8:27 PM 30.2 °F 19.3 °F 28.4 °F 93% 29.99 in 8.0 mi ENE 15.0 mph - 0.00 in Snow Light Snow
8:56 PM 30.0 °F 19.5 °F 28.0 °F 92% 30.01 in 10.0 mi ENE 13.8 mph - 0.00 in   Clear
9:51 PM 30.2 °F 20.2 °F 28.4 °F 93% 30.00 in 1.8 mi ENE 12.7 mph - 0.00 in Snow Light Snow
9:56 PM 30.0 °F 20.0 °F 28.0 °F 92% 30.02 in 1.8 mi ENE 12.7 mph - 0.00 in Snow Light Snow
9:59 PM 30.2 °F 20.2 °F 28.4 °F 93% 30.00 in 3.0 mi ENE 12.7 mph - 0.00 in Snow Light Snow
10:06 PM 30.2 °F 19.8 °F 28.4 °F 93% 30.00 in 9.0 mi ENE 13.8 mph - 0.00 in   Scattered Clouds
10:45 PM 30.2 °F 20.8 °F 28.4 °F 93% 30.00 in 3.0 mi East 11.5 mph - 0.00 in Snow Light Snow
10:52 PM 30.2 °F 20.2 °F 28.4 °F 93% 30.00 in 8.0 mi ENE 12.7 mph - 0.00 in Snow Light Snow
10:56 PM 30.0 °F 20.0 °F 28.0 °F 92% 30.02 in 8.0 mi ENE 12.7 mph - 0.00 in Snow Light Snow
11:32 PM 28.4 °F 17.5 °F 28.4 °F 100% 30.00 in 2.5 mi NE 13.8 mph - 0.00 in Snow Light Snow
11:40 PM 28.4 °F 17.5 °F 28.4 °F 100% 30.00 in 1.2 mi ENE 13.8 mph - 0.00 in Snow Light Snow
11:46 PM 28.4 °F 17.5 °F 28.4 °F 100% 30.00 in 3.0 mi NE 13.8 mph - 0.00 in Snow Light Snow
11:56 PM 28.9 °F 17.7 °F 27.0 °F 92% 30.03 in 9.0 mi ENE 15.0 mph - 0.00 in Snow Light Snow